Regional Weather Roundup
Issued by NWS

Home | Current Version | Previous Version | Text Only | Print | Product List | Glossary On
Versions: 1 2 3 4 5 6 7 8 9 10 11 12 13 14 15 16 17 18 19 20 21 22 23 24 25 26 27 28 29 30 31 32 33 34 35 36 37 38 39 40 41 42 43 44 45 46 47 48 49 50
000
ASCA42 TJSJ 200411
RWRPR
PUERTO RICO/U.S. VIRGIN ISLANDS HOURLY WEATHER ROUNDUP
NATIONAL WEATHER SERVICE SAN JUAN PR
1200 AM AST SAT DEC 20 2014

PRZ001-004-200500-
PUERTO RICO

CITY           SKY/WX    TMP DP  RH WIND       PRES   REMARKS
SAN JUAN LMM   PTCLDY    77  70  78 E6        30.01F
PONCE          PTCLDY    70  66  88 CALM      29.95S
AGUADILLA      CLEAR     72  66  83 E8        30.02F
CEIBA          PTCLDY    77  68  73 E3        30.03F
$$

PRZ006-007-200500-
U.S. VIRGIN ISLANDS

CITY           SKY/WX    TMP DP  RH WIND       PRES   REMARKS
CHARLOTTE AMA  CLEAR     75  68  78 E8        30.00
$$

HOURLY WEATHER ROUNDUP FOR THE NEWS MEDIA

CITY           SKY/WX    TMP DP  RH WIND       PRES   REMARKS
MIAMI          PTCLDY    70  59  68 E8        30.08S
ORLANDO        PTCLDY    57  51  80 CALM      30.10S
NEW YORK       MOCLDY    32  20  61 NW9       30.19R WCI  24
NEWARK         MOCLDY    32  21  64 NW8       30.19R WCI  25
CHICAGO        CLOUDY    29  21  72 N3        30.26S
HARTFORD       CLEAR     30  21  69 VRB5      30.11S WCI  25
BOSTON         CLEAR     29  20  69 NW8       30.14R WCI  21
DALLAS         CLOUDY    48  44  86 N9        30.21S
PHILADELPHIA   MOCLDY    34  21  59 NW5       30.22S WCI  30


USA.gov is the U.S. government's official web portal to all federal, state and local government web resources and services.